This is the latest recevied weather packets stored in our database for station/object WD9EKA. If no packets are shown the sender has not sent any weather packets the latest 10 day(s).
| Time | Temp. | Humidity | Pressure | Rain* | Wind** | Luminosity | Snow |
|---|---|---|---|---|---|---|---|
| 1778019994 | 8.89° C | 99% | 1004.2 hPa | 2.29 mm | - | - | - |
| 1778019634 | 8.89° C | 99% | 1004.2 hPa | 2.03 mm | - | - | - |
| 1778019274 | 8.89° C | 99% | 1004.2 hPa | 2.29 mm | - | - | - |
| 1778018914 | 8.89° C | 99% | 1004.4 hPa | 2.29 mm | - | - | - |
| 1778018554 | 8.89° C | 99% | 1004.6 hPa | 2.29 mm | - | - | - |
| 1778018194 | 8.89° C | 99% | 1004.5 hPa | 2.29 mm | - | - | - |
| 1778017834 | 8.89° C | 99% | 1004.4 hPa | 2.29 mm | - | - | - |
| 1778017473 | 9.44° C | 99% | 1004.4 hPa | 2.03 mm | - | - | - |
| 1778017173 | 9.44° C | 99% | 1004.3 hPa | 2.03 mm | - | - | - |
| 1778016853 | 9.44° C | 99% | 1004.1 hPa | 1.78 mm | - | - | - |
| 1778016533 | 9.44° C | 99% | 1004 hPa | 1.78 mm | - | - | - |
| 1778016214 | 9.44° C | 99% | 1004 hPa | 1.52 mm | - | - | - |
| 1778015909 | 9.44° C | 99% | 1003.6 hPa | 1.52 mm | - | - | - |
| 1778015573 | 9.44° C | 99% | 1004.1 hPa | 1.52 mm | - | - | - |
| 1778015254 | 10° C | 99% | 1004.4 hPa | 1.27 mm | - | - | - |
| 1778014894 | 9.44° C | 99% | 1004.2 hPa | 1.27 mm | - | - | - |
| 1778014534 | 9.44° C | 99% | 1004.3 hPa | 1.02 mm | - | - | - |
| 1778014229 | 9.44° C | 99% | 1004.4 hPa | 0.76 mm | - | - | - |
| 1778013910 | 9.44° C | 99% | 1004.7 hPa | 0.76 mm | - | - | - |
| 1778013589 | 9.44° C | 99% | 1004.7 hPa | 0.51 mm | - | - | - |
| 1778013269 | 9.44° C | 99% | 1004.8 hPa | 0.51 mm | - | - | - |
| 1778012949 | 9.44° C | 99% | 1004.8 hPa | 0.51 mm | - | - | - |
| 1778012629 | 9.44° C | 99% | 1004.6 hPa | 0.51 mm | - | - | - |
| 1778012314 | 9.44° C | 99% | 1004.6 hPa | 0.25 mm | - | - | - |
| 1778011954 | 9.44° C | 99% | 1004.7 hPa | 0.25 mm | - | - | - |
* Rain latest hour (hover to see other rain measurements)
** Current wind speed in m/s (hover to see current wind gust speed)